Sigfox identifier Datetime Temperature Humidity SNR
002EF778 2019-04-23 15:10:58 16.5 32 24.3
002EF778 2019-04-23 14:37:16 16.5 32 24.2
002EF778 2019-04-23 14:03:34 16.3 32 24.2
002EF778 2019-04-23 13:29:51 16.3 32 24.3
002EF778 2019-04-23 12:56:08 16.2 32 24.3
002EF778 2019-04-23 12:22:26 16 32 24.2
002EF778 2019-04-23 11:48:44 16 32 24.1
002EF778 2019-04-23 11:15:02 15.9 32 23.4
002EF778 2019-04-23 10:41:21 15.9 32 23.5
002EF778 2019-04-23 10:07:39 15.8 32 23.4
002EF778 2019-04-23 09:33:58 15.8 32 23.4
002EF778 2019-04-23 09:00:17 15.8 32 23
002EF778 2019-04-23 08:26:34 15.8 32 23
002EF778 2019-04-23 07:52:53 15.8 32 22.6
002EF778 2019-04-23 07:19:12 15.8 32 22.5
002EF778 2019-04-23 06:45:30 15.7 32 22.5
002EF778 2019-04-23 06:11:48 15.8 32 22.5
002EF778 2019-04-23 05:38:07 15.6 32 22.5
002EF778 2019-04-23 05:04:25 15.6 32 22.5
002EF778 2019-04-23 04:30:42 15.6 32 22.5
002EF778 2019-04-23 03:57:00 15.7 32 22.4
002EF778 2019-04-23 03:23:18 15.6 32 23.1
002EF778 2019-04-23 02:49:36 15.6 32 23.2
002EF778 2019-04-23 02:15:53 15.6 32 23.2
002EF778 2019-04-23 01:42:11 15.7 32 23.1
002EF778 2019-04-23 01:08:29 15.8 32 23
002EF778 2019-04-23 00:34:46 15.8 32 23.1
002EF778 2019-04-23 00:01:04 15.8 32 23.1
002EF778 2019-04-22 23:27:23 15.8 32 23.2
002EF778 2019-04-22 22:53:41 15.8 32 23.2
002EF778 2019-04-22 22:20:01 15.8 32 23.2
002EF778 2019-04-22 21:46:20 15.8 32 23.1
002EF778 2019-04-22 21:12:39 15.8 32 23.3
002EF778 2019-04-22 20:38:58 16 32 23.4
002EF778 2019-04-22 20:05:16 16 32 23.3
002EF778 2019-04-22 19:31:34 16 32 23.3
002EF778 2019-04-22 18:57:53 16 32 23.3
002EF778 2019-04-22 18:24:11 16 32 23.4
002EF778 2019-04-22 17:50:30 16 32 23.5
002EF778 2019-04-22 17:16:48 16 32 23.5
002EF778 2019-04-22 16:43:06 16 32 23.5
002EF778 2019-04-22 16:09:25 16 32 23.5
002EF778 2019-04-22 15:35:43 16 32 23.5
002EF778 2019-04-22 15:02:00 16 32 23.5
002EF778 2019-04-22 14:28:18 15.9 31 23.6
002EF778 2019-04-22 13:54:36 15.9 31 23.6
002EF778 2019-04-22 13:20:53 15.8 31 23
002EF778 2019-04-22 12:47:09 15.8 31 22.8
002EF778 2019-04-22 12:13:27 15.8 31 22.8
002EF778 2019-04-22 11:39:44 15.8 31 22.8
002EF778 2019-04-22 11:06:02 15.8 31 22.9
002EF778 2019-04-22 10:32:19 15.8 31 22.9
002EF778 2019-04-22 09:58:36 15.7 31 22.8
002EF778 2019-04-22 09:24:55 15.7 31 22.7
002EF778 2019-04-22 08:51:14 15.7 31 22.7
002EF778 2019-04-22 08:17:32 15.7 31 22.8
002EF778 2019-04-22 07:43:50 15.7 31 22.8
002EF778 2019-04-22 07:10:08 15.8 31 22.8
002EF778 2019-04-22 06:36:27 15.8 31 22.7
002EF778 2019-04-22 06:02:45 15.8 31 22.6
002EF778 2019-04-22 05:29:04 15.8 31 22.6
002EF778 2019-04-22 04:55:22 15.6 31 22.7
002EF778 2019-04-22 04:21:41 15.8 31 22.7
002EF778 2019-04-22 03:47:59 15.6 31 22.7
002EF778 2019-04-22 03:14:17 15.7 31 22.6
002EF778 2019-04-22 02:40:35 15.8 31 22.7
002EF778 2019-04-22 02:06:55 15.6 31 22.8
002EF778 2019-04-22 01:33:12 15.6 31 22.8
002EF778 2019-04-22 00:59:29 15.6 31 22.7
002EF778 2019-04-22 00:25:47 15.6 31 22.7
002EF778 2019-04-21 23:52:05 15.6 31 22.6
002EF778 2019-04-21 23:18:22 15.6 31 22.6
002EF778 2019-04-21 22:44:40 15.6 31 22.7
002EF778 2019-04-21 22:10:58 15.6 31 22.8
002EF778 2019-04-21 21:37:15 15.6 31 22.8
002EF778 2019-04-21 21:03:33 15.6 31 22.7
002EF778 2019-04-21 20:29:51 15.6 31 22.5
002EF778 2019-04-21 19:56:09 15.6 31 22.6
002EF778 2019-04-21 19:22:27 15.6 31 22.6
002EF778 2019-04-21 18:48:45 15.6 31 22.6
002EF778 2019-04-21 18:15:02 15.6 31 22.4
002EF778 2019-04-21 17:41:20 15.6 31 22.4
002EF778 2019-04-21 17:07:38 15.6 31 22.4
002EF778 2019-04-21 16:33:55 15.6 31 22.3
002EF778 2019-04-21 16:00:14 15.5 31 22.4
002EF778 2019-04-21 15:26:31 15.5 31 22.4
002EF778 2019-04-21 14:52:49 15.5 31 22.4
002EF778 2019-04-21 14:19:06 15.5 30 22.4
002EF778 2019-04-21 13:45:24 15.6 30 22.2
002EF778 2019-04-21 13:11:41 15.6 30 22.3
002EF778 2019-04-21 12:38:00 15.5 30 22.2
002EF778 2019-04-21 12:04:17 15.5 30 22.2
002EF778 2019-04-21 11:30:35 15.6 30 22.2
002EF778 2019-04-21 10:56:52 15.5 30 22.2
002EF778 2019-04-21 10:23:10 15.6 30 21.9
002EF778 2019-04-21 09:49:28 15.6 30 22
002EF778 2019-04-21 09:15:44 15.6 30 21.9
002EF778 2019-04-21 08:42:00 15.8 30 21.9
002EF778 2019-04-21 08:08:17 15.8 30 22
002EF778 2019-04-21 07:34:35 15.7 30 21.9
002EF778 2019-04-21 07:00:52 15.8 30 22.2
002EF778 2019-04-21 06:27:08 15.7 30 22.1
002EF778 2019-04-21 05:53:27 15.8 30 22.1
002EF778 2019-04-21 05:19:44 15.8 30 22.1
002EF778 2019-04-21 04:46:02 15.8 30 22.3
002EF778 2019-04-21 04:12:19 15.7 30 22.2
002EF778 2019-04-21 03:38:36 15.8 30 22.2
002EF778 2019-04-21 03:04:53 15.6 30 22.3
002EF778 2019-04-21 02:31:08 15.6 30 22.3
002EF778 2019-04-21 01:57:25 15.6 30 22.3
002EF778 2019-04-21 01:23:42 15.7 30 22.1
002EF778 2019-04-21 00:49:59 15.6 30 22.1
002EF778 2019-04-21 00:16:15 15.6 30 22.2
002EF778 2019-04-20 23:42:32 15.6 30 22.1
002EF778 2019-04-20 23:08:50 15.6 30 22.3
002EF778 2019-04-20 22:35:07 15.6 30 22.2
002EF778 2019-04-20 22:01:25 15.6 30 22.1
002EF778 2019-04-20 21:27:46 15.6 30 22.3
002EF778 2019-04-20 20:53:59 15.6 30 22.2
002EF778 2019-04-20 20:20:15 15.6 30 22.4
002EF778 2019-04-20 19:46:33 15.6 30 22.5
002EF778 2019-04-20 19:12:50 15.6 30 23.2
002EF778 2019-04-20 18:39:07 15.6 30 23.2
002EF778 2019-04-20 18:05:24 15.6 30 23.1
002EF778 2019-04-20 17:31:41 15.6 30 22.9
002EF778 2019-04-20 16:57:58 15.6 30 23
002EF778 2019-04-20 16:24:14 15.6 30 23
002EF778 2019-04-20 15:50:30 15.6 30 22.8
002EF778 2019-04-20 15:16:49 15.6 30 22.8
002EF778 2019-04-20 14:43:06 15.6 30 22.8
002EF778 2019-04-20 14:09:23 15.6 29 22.8
002EF778 2019-04-20 13:35:41 15.6 29 22.7
002EF778 2019-04-20 13:02:00 15.6 29 22.6
002EF778 2019-04-20 12:28:18 15.6 29 22.6
002EF778 2019-04-20 11:54:36 15.6 29 22.6
002EF778 2019-04-20 11:20:55 15.6 29 22.4
002EF778 2019-04-20 10:47:13 15.6 29 22.4
002EF778 2019-04-20 10:13:30 15.6 29 22.4
002EF778 2019-04-20 09:39:49 15.6 29 22.2
002EF778 2019-04-20 09:06:07 15.7 29 22.4
002EF778 2019-04-20 08:32:25 15.7 29 22.4
002EF778 2019-04-20 07:58:42 15.8 29 22.4
002EF778 2019-04-20 07:24:59 15.8 29 22.4
002EF778 2019-04-20 06:51:16 15.9 29 22.5
002EF778 2019-04-20 06:17:34 15.8 29 22.3
002EF778 2019-04-20 05:43:50 15.8 29 22.2
002EF778 2019-04-20 05:10:07 15.8 29 21.1
002EF778 2019-04-20 04:36:24 15.8 29 21.2
002EF778 2019-04-20 04:02:45 15.8 29 21.6
002EF778 2019-04-20 03:28:58 15.8 29 21.6
002EF778 2019-04-20 02:55:14 15.8 29 21.5
002EF778 2019-04-20 02:21:31 15.9 29 21.5
002EF778 2019-04-20 01:47:49 16 29 21.5
002EF778 2019-04-20 01:14:06 16 29 21.5
002EF778 2019-04-20 00:40:23 16 29 21.5
002EF778 2019-04-20 00:06:40 16 29 21.6
002EF778 2019-04-19 23:32:57 16 29 21.7
002EF778 2019-04-19 22:59:14 16.1 29 21.8
002EF778 2019-04-19 22:25:31 16 29 22
002EF778 2019-04-19 21:51:47 16.1 29 22.1
002EF778 2019-04-19 21:18:05 16.2 29 22.1
002EF778 2019-04-19 20:44:23 16.3 29 22.1
002EF778 2019-04-19 20:10:41 16.3 29 22
002EF778 2019-04-19 19:36:59 16.3 29 22
002EF778 2019-04-19 19:03:17 16.3 29 22.1
002EF778 2019-04-19 18:29:35 16.3 29 22.2
002EF778 2019-04-19 17:55:52 16.3 29 22.2
002EF778 2019-04-19 17:22:09 16.3 28 22.2
002EF778 2019-04-19 16:48:27 16.3 29 22.3
002EF778 2019-04-19 16:14:44 16.3 28 22.4
002EF778 2019-04-19 15:41:01 16.2 28 22.4
002EF778 2019-04-19 15:07:20 16.2 28 22.4
002EF778 2019-04-19 14:33:37 16.1 28 22.3
002EF778 2019-04-19 13:59:56 16 28 22.3
002EF778 2019-04-19 13:26:13 16 28 22.4
002EF778 2019-04-19 12:52:30 16 28 22.5
002EF778 2019-04-19 12:18:47 16 28 22.5
002EF778 2019-04-19 11:45:05 16 28 22.6
002EF778 2019-04-19 11:11:22 16 28 22.7
002EF778 2019-04-19 10:37:40 16 28 22.8
002EF778 2019-04-19 10:03:59 16 28 22.7
002EF778 2019-04-19 09:30:17 15.9 28 22.8
002EF778 2019-04-19 08:56:34 16 28 23.1
002EF778 2019-04-19 08:22:53 15.9 28 23.1
002EF778 2019-04-19 07:49:10 16 28 23.3
002EF778 2019-04-19 07:15:29 16 28 23.4
002EF778 2019-04-19 06:41:47 16 28 23.5
002EF778 2019-04-19 06:08:06 16 28 23.6
002EF778 2019-04-19 05:34:23 16 28 23.8
002EF778 2019-04-19 05:00:40 16 28 24.1
002EF778 2019-04-19 04:26:58 16 28 24.3
002EF778 2019-04-19 03:53:16 16 28 24.4
002EF778 2019-04-19 03:19:34 16 28 24.5
002EF778 2019-04-19 02:45:51 16 28 24.5
002EF778 2019-04-19 02:12:08 16 27 24.6
002EF778 2019-04-19 01:38:27 16.2 27 24.8
002EF778 2019-04-19 01:04:42 16.3 27 24.7
002EF778 2019-04-19 00:30:59 16.3 27 24.8
002EF778 2019-04-18 23:57:17 16.4 27 24.8
002EF778 2019-04-18 23:23:34 16.5 27 24.9
002EF778 2019-04-18 22:49:52 16.5 27 25
002EF778 2019-04-18 22:16:10 16.5 27 25.1
002EF778 2019-04-18 21:42:28 16.6 27 25.2
002EF778 2019-04-18 21:08:46 16.6 27 25.1
002EF778 2019-04-18 20:35:03 16.6 27 25.1
002EF778 2019-04-18 20:01:22 16.7 27 25.1
002EF778 2019-04-18 19:27:41 16.7 27 25.1
002EF778 2019-04-18 18:53:59 16.7 27 25.1
002EF778 2019-04-18 18:20:17 16.7 27 25.1
002EF778 2019-04-18 17:46:34 16.7 27 25.1
002EF778 2019-04-18 17:12:51 16.7 27 25.1
002EF778 2019-04-18 16:39:08 16.7 27 25
002EF778 2019-04-18 16:05:26 16.5 27 25.1
002EF778 2019-04-18 15:31:43 16.5 27 25
002EF778 2019-04-18 14:58:00 16.5 27 24.7
002EF778 2019-04-18 14:24:18 16.5 27 24.5
002EF778 2019-04-18 13:50:35 16.3 27 24.4
002EF778 2019-04-18 13:16:51 16.3 27 24.4
002EF778 2019-04-18 12:43:08 16.3 27 24.5
002EF778 2019-04-18 12:09:25 16.3 27 24.3
002EF778 2019-04-18 11:35:42 16.3 27 24.2
002EF778 2019-04-18 11:01:59 16.3 27 24.4
002EF778 2019-04-18 10:28:17 16.3 26 24.4
002EF778 2019-04-18 09:54:35 16.3 26 24.4
002EF778 2019-04-18 09:20:54 16 26 24.3
002EF778 2019-04-18 08:47:13 16.1 26 24.5
002EF778 2019-04-18 08:13:31 16.3 26 24.4
002EF778 2019-04-18 07:39:49 16.3 26 24.3
002EF778 2019-04-18 07:06:08 16.3 26 24.5
002EF778 2019-04-18 06:32:26 16.3 26 24.4
002EF778 2019-04-18 05:58:44 16.1 26 24.5
002EF778 2019-04-18 05:25:02 16.1 26 24.4
002EF778 2019-04-18 04:51:21 16.1 26 24.5
002EF778 2019-04-18 04:17:39 16 26 24.2
002EF778 2019-04-18 03:43:58 16.2 26 24.4
002EF778 2019-04-18 03:10:16 16.2 26 24.4
002EF778 2019-04-18 02:36:34 16.3 26 24.4
002EF778 2019-04-18 02:02:52 16.3 26 24.4
002EF778 2019-04-18 01:29:11 16.4 26 24.4
002EF778 2019-04-18 00:55:30 16.5 26 24.4
002EF778 2019-04-18 00:21:49 16.6 26 24.4
002EF778 2019-04-17 23:48:08 16.7 26 24.4
002EF778 2019-04-17 23:14:27 16.7 26 24.4
002EF778 2019-04-17 22:40:45 16.7 26 24.3
002EF778 2019-04-17 22:07:04 16.8 26 24.6
002EF778 2019-04-17 21:33:23 16.7 25 24.5
002EF778 2019-04-17 20:59:42 16.7 25 24.4
002EF778 2019-04-17 20:26:00 16.7 25 24.5
002EF778 2019-04-17 19:52:17 16.7 25 24.4
002EF778 2019-04-17 19:18:35 16.7 25 24.4
002EF778 2019-04-17 18:44:54 16.7 25 24.1
002EF778 2019-04-17 18:11:13 16.7 25 24.2
002EF778 2019-04-17 17:37:31 16.7 25 24.1
002EF778 2019-04-17 17:03:49 16.7 25 24.1
002EF778 2019-04-17 16:30:09 16.7 25 24.1
002EF778 2019-04-17 15:56:27 16.7 25 24
002EF778 2019-04-17 15:22:46 16.7 25 24.2
002EF778 2019-04-17 14:49:05 16.9 25 24
002EF778 2019-04-17 14:15:23 16.9 25 24.6
002EF778 2019-04-17 13:41:41 17 25 24.4
002EF778 2019-04-17 13:08:00 17.1 25 24.3
002EF778 2019-04-17 12:34:18 17.1 25 24.3
002EF778 2019-04-17 12:00:36 17.1 24 24.1
002EF778 2019-04-17 11:26:54 17 24 24
002EF778 2019-04-17 10:53:12 16.9 24 23.9
002EF778 2019-04-17 10:19:32 16.9 24 23.7
002EF778 2019-04-17 09:45:51 16.9 24 23.6
002EF778 2019-04-17 09:12:09 16.9 24 23.5
002EF778 2019-04-17 08:38:27 17 24 23.3
002EF778 2019-04-17 08:04:45 17.1 24 22.9
002EF778 2019-04-17 07:31:02 17.3 24 22.8
002EF778 2019-04-17 06:57:21 17.4 24 22.9
002EF778 2019-04-17 06:23:38 17.5 24 23
002EF778 2019-04-17 05:49:55 17.5 24 23
002EF778 2019-04-17 05:16:12 17.6 23 23.1
002EF778 2019-04-17 04:42:29 17.7 23 23.2
002EF778 2019-04-17 04:08:47 17.8 23 23
002EF778 2019-04-17 03:35:04 17.8 23 22.9
002EF778 2019-04-17 03:01:21 18 23 22.7
002EF778 2019-04-17 02:27:38 18 23 22.4
002EF778 2019-04-17 01:53:55 18 23 22.1
002EF778 2019-04-17 01:20:12 18 23 21.7
002EF778 2019-04-17 00:46:29 18 23 21.7
002EF778 2019-04-17 00:12:45 18 23 20.4
002EF778 2019-04-16 23:39:03 18 22 20.1
002EF778 2019-04-16 23:05:20 18 22 19.9
002EF778 2019-04-16 22:31:39 18.3 22 19.7
002EF778 2019-04-16 21:57:55 18.6 22 19.5
002EF778 2019-04-16 21:24:14 18.8 22 19.4
002EF778 2019-04-16 20:50:32 18.9 22 19.3
002EF778 2019-04-16 20:16:49 19 22 19.2
002EF778 2019-04-16 19:43:07 19 22 19.2
002EF778 2019-04-16 19:09:24 19 22 19.1
002EF778 2019-04-16 18:35:41 19 22 19
002EF778 2019-04-16 18:01:57 19.1 21 18.7
002EF778 2019-04-16 17:28:13 19.2 21 18.8
002EF778 2019-04-16 16:20:49 19.7 21 18.1
002EF778 2019-04-16 15:47:04 19.9 21 17.1
002EF778 2019-04-16 15:13:20 20.1 21 16.1
002EF778 2019-04-16 14:39:36 20.5 21 14.9
002EF778 2019-04-16 14:05:53 21.1 21 12.6
002EF778 2019-04-16 13:32:09 21.2 21 12.6
002EF778 2019-04-16 12:58:25 21.2 21 12.5
002EF778 2019-04-16 12:24:42 21.1 21 12.6
002EF778 2019-04-16 11:50:57 21.1 21 12.5
002EF778 2019-04-16 11:17:13 21 21 12
002EF778 2019-04-16 10:43:28 21 21 11.9
002EF778 2019-04-16 10:09:43 21 21 10.9
002EF778 2019-04-16 09:36:03 21 21 11
002EF778 2019-04-16 09:02:15 21 21 10.5
002EF778 2019-04-16 07:54:47 21 21 10.5
002EF778 2019-04-16 07:21:02 21 21 10.6
002EF778 2019-04-16 06:47:18 21 21 11.2
002EF778 2019-04-16 06:13:34 21 21 11
002EF778 2019-04-16 05:39:50 21 21 11.6
002EF778 2019-04-16 05:06:09 21 21 11.6
002EF778 2019-04-16 04:32:23 21 21 11.6
002EF778 2019-04-16 03:58:39 21 21 11.6
002EF778 2019-04-16 03:24:57 21 21 13.6
002EF778 2019-04-16 02:51:11 21.1 21 15.3
002EF778 2019-04-16 02:17:29 21 20 16.3
002EF778 2019-04-16 01:43:42 21.1 20 17.5
002EF778 2019-04-16 01:09:57 21.1 20 18.9
002EF778 2019-04-16 00:36:12 21.1 20 19.3
002EF778 2019-04-16 00:02:30 21.2 20 19.7
002EF778 2019-04-15 23:28:44 21.2 20 20.6
002EF778 2019-04-15 22:55:01 21.2 20 20.8
002EF778 2019-04-15 22:21:16 21.2 20 21.1
002EF778 2019-04-15 21:47:30 21.2 20 22.3
002EF778 2019-04-15 20:40:02 21.2 20 23.2
002EF778 2019-04-15 20:06:22 21.2 20 23.4
002EF778 2019-04-15 19:32:39 21.2 20 23.7
002EF778 2019-04-15 18:25:09 21.2 19 23.9
002EF778 2019-04-15 17:51:28 21.3 19 24.1
002EF778 2019-04-15 17:17:43 21.4 19 24.4
002EF778 2019-04-15 16:43:57 21.4 19 24.7
002EF778 2019-04-15 16:10:13 21.4 19 24.9
002EF778 2019-04-15 15:36:30 21.6 19 25.2
002EF778 2019-04-15 15:02:45 21.6 19 25.4
002EF778 2019-04-15 14:28:58 21.6 19 25.5
002EF778 2019-04-15 13:55:15 21.8 18 25.7
002EF778 2019-04-15 13:21:31 22 18 25.9
002EF778 2019-04-15 12:47:48 22.2 17 26.3
002EF778 2019-04-15 12:14:06 22.5 17 26.3
002EF778 2019-04-15 11:40:20 22.4 15 26.4
002EF778 2019-04-15 11:06:37 22.3 16 26.4
002EF778 2019-04-15 10:32:53 22.2 16 26.4
002EF778 2019-04-15 09:59:09 22.2 16 26.4
002EF778 2019-04-15 09:25:25 22.2 17 26.4
002EF778 2019-04-15 08:51:40 22.1 16 26.4
002EF778 2019-04-15 08:17:56 22 16 26.4
002EF778 2019-04-15 07:44:12 21.9 16 26.4
002EF778 2019-04-15 07:10:28 21.9 17 26.4
002EF778 2019-04-15 06:36:44 21.8 17 26.1
002EF778 2019-04-15 06:03:00 21.8 17 25.8
002EF778 2019-04-15 05:29:16 21.8 17 26
002EF778 2019-04-15 04:55:31 21.8 17 26
002EF778 2019-04-15 04:21:48 21.8 17 25.9
002EF778 2019-04-15 03:48:04 21.8 17 26.1
002EF778 2019-04-15 03:14:19 21.8 17 26
002EF778 2019-04-15 02:40:35 21.8 17 25.9
002EF778 2019-04-15 02:06:50 21.8 17 25.8
002EF778 2019-04-15 01:33:06 21.8 17 25.6
002EF778 2019-04-15 00:59:22 21.8 17 25.5
002EF778 2019-04-15 00:25:37 21.8 17 25.5
002EF778 2019-04-14 23:51:53 21.8 17 25.4
002EF778 2019-04-14 23:18:10 21.8 17 25.4
002EF778 2019-04-14 22:44:26 21.8 17 25
002EF778 2019-04-14 22:10:41 21.8 17 25
002EF778 2019-04-14 21:36:56 21.9 18 24.9
002EF778 2019-04-14 21:03:12 22 18 24.9
002EF778 2019-04-14 20:29:28 22 18 24.8
002EF778 2019-04-14 19:55:44 22 18 24.7
002EF778 2019-04-14 19:22:01 22 18 24.8
002EF778 2019-04-14 18:48:18 22 17 24.9
002EF778 2019-04-14 18:14:34 22 17 24.8
002EF778 2019-04-14 17:40:50 21.9 17 24.9
002EF778 2019-04-14 17:07:07 22 17 24.9
002EF778 2019-04-14 16:33:24 21.9 17 25
002EF778 2019-04-14 15:59:40 21.9 17 25
002EF778 2019-04-14 15:25:57 21.9 18 24.8
002EF778 2019-04-14 14:52:14 21.9 18 24.8
002EF778 2019-04-14 14:18:31 21.9 18 24.8
002EF778 2019-04-14 13:44:47 21.9 18 24.7
002EF778 2019-04-14 13:11:04 22 18 24.8
002EF778 2019-04-14 12:37:19 22 18 24.8
002EF778 2019-04-14 12:03:34 22 18 24.9
002EF778 2019-04-14 11:29:51 22 18 25
002EF778 2019-04-14 10:56:09 22 18 25
002EF778 2019-04-14 10:22:26 21.9 18 25.1
002EF778 2019-04-14 09:48:43 22 18 25.1
002EF778 2019-04-14 09:15:01 21.9 18 25.2
002EF778 2019-04-14 08:41:18 22 18 25.2
002EF778 2019-04-14 08:07:35 21.8 18 25.2
002EF778 2019-04-14 07:33:52 21.8 17 25.2
002EF778 2019-04-14 07:00:09 21.8 17 25.2
002EF778 2019-04-14 06:26:26 21.8 17 25.3
002EF778 2019-04-14 05:52:43 21.8 17 25.1
002EF778 2019-04-14 05:18:59 21.8 17 25.2
002EF778 2019-04-14 04:45:17 21.8 17 25
002EF778 2019-04-14 04:11:33 21.8 17 25
002EF778 2019-04-14 03:37:49 22 17 25
002EF778 2019-04-14 03:04:06 22 17 25
002EF778 2019-04-14 02:30:22 22 17 25
002EF778 2019-04-14 01:56:38 22 18 24.9
002EF778 2019-04-14 01:22:54 22 17 24.9
002EF778 2019-04-14 00:49:10 22 17 24.8
002EF778 2019-04-14 00:15:25 22 17 24.9
002EF778 2019-04-13 23:41:41 22 17 24.7
002EF778 2019-04-13 23:07:57 22 17 25.1
002EF778 2019-04-13 22:34:13 22 17 25.2
002EF778 2019-04-13 22:00:28 22 17 25.3
002EF778 2019-04-13 21:26:43 22 17 25.3
002EF778 2019-04-13 20:53:00 22.1 17 25.3
002EF778 2019-04-13 20:19:16 22 17 25.3
002EF778 2019-04-13 19:45:33 22.2 17 25.3
002EF778 2019-04-13 19:11:48 22.2 17 25.2
002EF778 2019-04-13 18:38:05 22.2 17 25.2
002EF778 2019-04-13 18:04:21 22.2 17 25.3
002EF778 2019-04-13 17:30:38 22.2 17 25.4
002EF778 2019-04-13 16:56:53 22.2 17 25.4
002EF778 2019-04-13 16:23:09 22.2 17 25.5
002EF778 2019-04-13 15:49:24 22.2 17 25.6
002EF778 2019-04-13 15:15:39 22.2 17 25.5
002EF778 2019-04-13 14:41:55 22.3 17 25.6
002EF778 2019-04-13 14:08:11 22.3 17 25.7
002EF778 2019-04-13 13:34:26 22.5 17 25.7
002EF778 2019-04-13 13:00:41 22.4 17 25.6
002EF778 2019-04-13 12:26:56 22.4 17 25.6
002EF778 2019-04-13 11:53:11 22.5 17 25.9
002EF778 2019-04-13 11:19:27 22.3 17 26
002EF778 2019-04-13 10:45:40 22.3 17 26.1
002EF778 2019-04-13 10:11:55 22.3 17 26.1
002EF778 2019-04-13 09:38:09 22.3 17 26.1
002EF778 2019-04-13 09:04:24 22.4 17 25.7
002EF778 2019-04-13 08:30:39 22.2 17 25.6
002EF778 2019-04-13 07:56:54 22.2 17 25.4
002EF778 2019-04-13 07:23:09 22.3 17 25.4
002EF778 2019-04-13 06:49:23 22.2 17 25.4
002EF778 2019-04-13 06:15:37 22.3 17 25.4
002EF778 2019-04-13 05:41:51 22.2 17 25.4
002EF778 2019-04-13 05:08:05 22.3 17 25.8
002EF778 2019-04-13 04:34:20 22.2 17 26.1
002EF778 2019-04-13 04:00:35 22.2 17 26.4
002EF778 2019-04-13 03:26:50 22.5 17 26.5
002EF778 2019-04-13 02:53:04 22.5 17 26.5
002EF778 2019-04-13 02:19:18 22.5 17 26.5
002EF778 2019-04-13 01:45:33 22.5 17 26.5
002EF778 2019-04-13 01:11:47 22.5 17 26.6
002EF778 2019-04-13 00:38:02 22.5 17 26.7
002EF778 2019-04-13 00:04:15 22.5 17 26.7
002EF778 2019-04-12 23:30:30 22.5 18 26.8
002EF778 2019-04-12 22:56:45 22.6 18 26.9
002EF778 2019-04-12 22:22:59 22.7 18 27
002EF778 2019-04-12 21:49:13 22.7 18 26.7
002EF778 2019-04-12 21:15:26 22.8 18 26.7
002EF778 2019-04-12 20:41:38 22.8 18 26.8
002EF778 2019-04-12 20:07:51 22.7 17 27
002EF778 2019-04-12 19:34:05 22.8 17 27.2
002EF778 2019-04-12 19:00:19 22.9 17 27.4
002EF778 2019-04-12 18:26:33 22.9 16 27.6
002EF778 2019-04-12 17:52:46 23.1 17 27.9
002EF778 2019-04-12 17:18:59 23.1 17 28.2
002EF778 2019-04-12 16:45:13 23.2 17 28.6
002EF778 2019-04-12 16:11:26 23.3 17 29
002EF778 2019-04-12 15:37:39 23.1 17 29.6
002EF778 2019-04-12 15:03:53 23.1 18 29.4
002EF778 2019-04-12 14:30:06 22.9 18 29.1
002EF778 2019-04-12 13:56:20 22.5 18 28
002EF778 2019-04-12 13:22:34 21.7 21 0